Time,TemperatureF,DewpointF,PressureIn,WindDirection,WindDirectionDegrees,WindSpeedMPH,WindSpeedGustMPH,Humidity,HourlyPrecipIn,Conditions,Clouds,dailyrainin,SoftwareType,DateUTC
2013-03-07 00:00:00,22.1,20.5,30.22,NW,315,8.0,13.0,93,-99.99,,,0.21,meteohub,2013-03-07 05:00:00,
2013-03-07 00:01:00,22.1,20.5,30.22,NNW,338,8.0,13.0,93,-99.99,,,0.21,meteohub,2013-03-07 05:01:00,
2013-03-07 00:06:00,22.1,20.5,30.22,WNW,292,9.0,14.0,93,-99.99,,,0.21,meteohub,2013-03-07 05:06:00,
2013-03-07 00:11:00,22.1,20.5,30.22,NW,315,8.0,14.0,93,-99.99,,,0.21,meteohub,2013-03-07 05:11:00,
2013-03-07 00:16:00,22.1,20.5,30.22,NNW,338,6.0,14.0,93,-99.99,,,0.21,meteohub,2013-03-07 05:16:00,
2013-03-07 00:21:00,21.9,20.3,30.22,NW,315,9.0,14.0,93,-99.99,,,0.21,meteohub,2013-03-07 05:21:00,
2013-03-07 00:26:00,21.9,20.3,30.22,NW,315,9.0,14.0,93,-99.99,,,0.21,meteohub,2013-03-07 05:26:00,
2013-03-07 00:31:00,21.9,20.3,30.22,WNW,292,8.0,13.0,93,-99.99,,,0.21,meteohub,2013-03-07 05:31:00,
2013-03-07 00:36:00,21.9,20.3,30.22,NW,315,8.0,13.0,93,-99.99,,,0.21,meteohub,2013-03-07 05:36:00,
2013-03-07 00:41:00,21.9,20.3,30.22,WNW,292,7.0,13.0,93,-99.99,,,0.21,meteohub,2013-03-07 05:41:00,
2013-03-07 00:46:00,21.9,20.3,30.22,NNW,338,8.0,13.0,93,-99.99,,,0.21,meteohub,2013-03-07 05:46:00,
2013-03-07 00:51:00,21.9,20.3,30.22,NW,315,9.0,13.0,93,-99.99,,,0.21,meteohub,2013-03-07 05:51:00,
2013-03-07 00:56:00,21.9,20.3,30.22,WNW,292,9.0,13.0,93,-99.99,,,0.21,meteohub,2013-03-07 05:56:00,
2013-03-07 01:01:00,21.9,20.3,30.22,WNW,292,8.0,12.0,93,-99.99,,,0.21,meteohub,2013-03-07 06:01:00,
2013-03-07 01:06:00,22.1,20.5,30.22,NW,315,10.0,12.0,93,-99.99,,,0.21,meteohub,2013-03-07 06:06:00,
2013-03-07 01:11:00,22.1,20.5,30.22,NW,315,8.0,13.0,93,-99.99,,,0.21,meteohub,2013-03-07 06:11:00,
2013-03-07 01:16:00,21.9,20.3,30.22,NNW,338,7.0,13.0,93,-99.99,,,0.21,meteohub,2013-03-07 06:16:00,
2013-03-07 01:21:00,21.9,20.3,30.22,NW,315,9.0,13.0,93,-99.99,,,0.21,meteohub,2013-03-07 06:21:00,
2013-03-07 01:26:00,21.9,20.3,30.22,WNW,292,9.0,13.0,93,-99.99,,,0.21,meteohub,2013-03-07 06:26:00,
2013-03-07 01:31:00,21.9,20.3,30.22,NW,315,9.0,14.0,93,-99.99,,,0.21,meteohub,2013-03-07 06:31:00,
2013-03-07 01:36:00,21.9,20.3,30.22,NW,315,10.0,14.0,93,-99.99,,,0.21,meteohub,2013-03-07 06:36:00,
2013-03-07 01:41:00,21.9,20.3,30.22,WNW,292,10.0,14.0,93,-99.99,,,0.21,meteohub,2013-03-07 06:41:00,
2013-03-07 01:46:00,21.9,20.3,30.22,NW,315,10.0,16.0,93,-99.99,,,0.21,meteohub,2013-03-07 06:46:00,
2013-03-07 01:51:00,21.9,20.3,30.22,WNW,292,16.0,16.0,93,-99.99,,,0.21,meteohub,2013-03-07 06:51:00,
2013-03-07 01:56:00,21.9,20.3,30.22,WNW,292,17.0,17.0,93,-99.99,,,0.21,meteohub,2013-03-07 06:56:00,
2013-03-07 02:01:00,21.9,20.3,30.22,NW,315,10.0,17.0,93,-99.99,,,0.21,meteohub,2013-03-07 07:01:00,
2013-03-07 02:06:00,21.9,20.3,30.22,NW,315,11.0,17.0,93,-99.99,,,0.21,meteohub,2013-03-07 07:06:00,
2013-03-07 02:11:00,21.9,20.3,30.22,NNW,338,11.0,17.0,93,-99.99,,,0.21,meteohub,2013-03-07 07:11:00,
2013-03-07 02:16:00,21.9,20.3,30.22,WNW,292,15.0,17.0,93,-99.99,,,0.21,meteohub,2013-03-07 07:16:00,
2013-03-07 02:21:00,21.9,20.3,30.22,WNW,292,10.0,17.0,93,-99.99,,,0.21,meteohub,2013-03-07 07:21:00,
2013-03-07 02:26:00,21.9,20.3,30.22,NW,315,11.0,19.0,93,-99.99,,,0.21,meteohub,2013-03-07 07:26:00,
2013-03-07 02:31:00,21.9,20.3,30.22,NNW,338,11.0,19.0,93,-99.99,,,0.21,meteohub,2013-03-07 07:31:00,
2013-03-07 02:36:00,21.9,20.3,30.22,NNW,338,16.0,19.0,93,-99.99,,,0.21,meteohub,2013-03-07 07:36:00,
2013-03-07 02:41:00,21.9,20.3,30.22,WNW,292,11.0,18.0,93,-99.99,,,0.21,meteohub,2013-03-07 07:41:00,
2013-03-07 02:47:00,21.9,20.3,30.19,NW,315,10.0,18.0,93,-99.99,,,0.21,meteohub,2013-03-07 07:47:00,
2013-03-07 02:52:00,21.9,20.3,30.19,WNW,292,12.0,18.0,93,-99.99,,,0.21,meteohub,2013-03-07 07:52:00,
2013-03-07 02:57:00,22.1,20.5,30.19,NNW,338,11.0,18.0,93,-99.99,,,0.21,meteohub,2013-03-07 07:57:00,
2013-03-07 03:02:00,22.1,20.5,30.22,NW,315,11.0,18.0,93,-99.99,,,0.21,meteohub,2013-03-07 08:02:00,
2013-03-07 03:07:00,22.1,20.5,30.22,WNW,292,11.0,18.0,93,-99.99,,,0.21,meteohub,2013-03-07 08:07:00,
2013-03-07 03:12:00,22.1,20.5,30.22,NW,315,12.0,16.0,93,-99.99,,,0.21,meteohub,2013-03-07 08:12:00,
2013-03-07 03:17:00,22.1,20.5,30.22,WNW,292,10.0,15.0,93,-99.99,,,0.21,meteohub,2013-03-07 08:17:00,
2013-03-07 03:22:00,22.1,20.5,30.22,WNW,292,15.0,15.0,93,-99.99,,,0.21,meteohub,2013-03-07 08:22:00,
2013-03-07 03:27:00,22.1,20.5,30.22,NW,315,11.0,17.0,93,-99.99,,,0.21,meteohub,2013-03-07 08:27:00,
2013-03-07 03:32:00,22.1,20.5,30.19,WNW,292,15.0,17.0,93,-99.99,,,0.21,meteohub,2013-03-07 08:32:00,
2013-03-07 03:37:00,22.1,20.5,30.19,NW,315,14.0,17.0,93,-99.99,,,0.21,meteohub,2013-03-07 08:37:00,
2013-03-07 03:42:00,22.1,20.5,30.19,NW,315,9.0,16.0,93,-99.99,,,0.21,meteohub,2013-03-07 08:42:00,
2013-03-07 03:47:00,22.1,20.5,30.22,WNW,292,11.0,20.0,93,-99.99,,,0.21,meteohub,2013-03-07 08:47:00,
2013-03-07 03:52:00,22.1,20.5,30.22,WNW,292,11.0,20.0,93,-99.99,,,0.21,meteohub,2013-03-07 08:52:00,
2013-03-07 03:57:00,22.1,20.5,30.22,WNW,292,13.0,20.0,93,-99.99,,,0.21,meteohub,2013-03-07 08:57:00,
2013-03-07 04:02:00,22.1,20.5,30.22,WNW,292,11.0,17.0,93,-99.99,,,0.21,meteohub,2013-03-07 09:02:00,
2013-03-07 04:07:00,22.1,20.5,30.22,WNW,292,12.0,17.0,93,-99.99,,,0.21,meteohub,2013-03-07 09:07:00,
2013-03-07 04:12:00,22.1,20.5,30.22,NW,315,9.0,17.0,93,-99.99,,,0.21,meteohub,2013-03-07 09:12:00,
2013-03-07 04:17:00,22.1,20.5,30.22,WNW,292,12.0,16.0,93,-99.99,,,0.21,meteohub,2013-03-07 09:17:00,
2013-03-07 04:22:00,22.1,20.5,30.22,WNW,292,11.0,16.0,93,-99.99,,,0.21,meteohub,2013-03-07 09:22:00,
2013-03-07 04:27:00,22.1,20.5,30.22,WNW,292,11.0,16.0,93,-99.99,,,0.21,meteohub,2013-03-07 09:27:00,
2013-03-07 04:32:00,22.1,20.5,30.22,WNW,292,10.0,16.0,93,-99.99,,,0.21,meteohub,2013-03-07 09:32:00,
2013-03-07 04:37:00,22.1,20.5,30.22,NW,315,11.0,19.0,93,-99.99,,,0.21,meteohub,2013-03-07 09:37:00,
2013-03-07 04:42:00,22.1,20.5,30.22,WNW,292,10.0,19.0,93,-99.99,,,0.21,meteohub,2013-03-07 09:42:00,
2013-03-07 04:47:00,22.1,20.5,30.22,NW,315,10.0,19.0,93,-99.99,,,0.21,meteohub,2013-03-07 09:47:00,
2013-03-07 04:52:00,22.1,20.5,30.22,NNW,338,11.0,18.0,93,-99.99,,,0.21,meteohub,2013-03-07 09:52:00,
2013-03-07 04:57:00,22.1,20.5,30.22,WNW,292,13.0,17.0,93,-99.99,,,0.21,meteohub,2013-03-07 09:57:00,
2013-03-07 05:02:00,22.1,20.5,30.26,NW,315,13.0,17.0,93,-99.99,,,0.21,meteohub,2013-03-07 10:02:00,
2013-03-07 05:07:00,22.1,20.5,30.26,NW,315,10.0,17.0,93,-99.99,,,0.21,meteohub,2013-03-07 10:07:00,
2013-03-07 05:13:00,22.1,20.1,30.26,WNW,292,13.0,15.0,92,-99.99,,,0.21,meteohub,2013-03-07 10:13:00,
2013-03-07 05:18:00,21.9,19.9,30.26,NW,315,11.0,15.0,92,-99.99,,,0.21,meteohub,2013-03-07 10:18:00,
2013-03-07 05:23:00,21.9,19.9,30.26,WNW,292,9.0,15.0,92,-99.99,,,0.21,meteohub,2013-03-07 10:23:00,
2013-03-07 05:28:00,21.9,19.9,30.26,WNW,292,10.0,13.0,92,-99.99,,,0.21,meteohub,2013-03-07 10:28:00,
2013-03-07 05:33:00,21.9,19.9,30.26,WNW,292,11.0,13.0,92,-99.99,,,0.21,meteohub,2013-03-07 10:33:00,
2013-03-07 05:38:00,21.9,19.9,30.26,WNW,292,9.0,17.0,92,-99.99,,,0.21,meteohub,2013-03-07 10:38:00,
2013-03-07 05:43:00,21.9,19.9,30.26,WNW,292,10.0,17.0,92,-99.99,,,0.21,meteohub,2013-03-07 10:43:00,
2013-03-07 05:48:00,21.9,19.9,30.26,WNW,292,11.0,17.0,92,-99.99,,,0.21,meteohub,2013-03-07 10:48:00,
2013-03-07 05:53:00,21.9,19.9,30.26,WNW,292,13.0,17.0,92,-99.99,,,0.21,meteohub,2013-03-07 10:53:00,
2013-03-07 05:58:00,21.7,19.6,30.26,NW,315,9.0,17.0,91,-99.99,,,0.21,meteohub,2013-03-07 10:58:00,
2013-03-07 06:03:00,21.7,19.6,30.26,NW,315,11.0,15.0,91,-99.99,,,0.21,meteohub,2013-03-07 11:03:00,
2013-03-07 06:08:00,21.7,19.6,30.26,WNW,292,11.0,17.0,91,-99.99,,,0.21,meteohub,2013-03-07 11:08:00,
2013-03-07 06:13:00,21.7,19.6,30.26,NNW,338,11.0,17.0,91,-99.99,,,0.21,meteohub,2013-03-07 11:13:00,
2013-03-07 06:18:00,21.7,19.6,30.26,NW,315,13.0,17.0,91,-99.99,,,0.21,meteohub,2013-03-07 11:18:00,
2013-03-07 06:23:00,21.6,19.4,30.26,NW,315,10.0,15.0,91,-99.99,,,0.21,meteohub,2013-03-07 11:23:00,
2013-03-07 06:28:00,21.6,19.4,30.26,WNW,292,10.0,15.0,91,-99.99,,,0.21,meteohub,2013-03-07 11:28:00,
2013-03-07 06:33:00,21.6,19.4,30.26,WNW,292,11.0,19.0,91,-99.99,,,0.21,meteohub,2013-03-07 11:33:00,
2013-03-07 06:38:00,21.6,19.4,30.26,WNW,292,15.0,19.0,91,-99.99,,,0.21,meteohub,2013-03-07 11:38:00,
2013-03-07 06:43:00,21.6,19.4,30.26,NW,315,15.0,19.0,91,-99.99,,,0.21,meteohub,2013-03-07 11:43:00,
2013-03-07 06:48:00,21.6,19.4,30.26,NW,315,13.0,18.0,91,-99.99,,,0.21,meteohub,2013-03-07 11:48:00,
2013-03-07 06:53:00,21.7,19.6,30.26,NW,315,14.0,18.0,91,-99.99,,,0.21,meteohub,2013-03-07 11:53:00,
2013-03-07 06:58:00,21.7,19.6,30.26,WNW,292,10.0,18.0,91,-99.99,,,0.21,meteohub,2013-03-07 11:58:00,
2013-03-07 07:03:00,21.7,19.6,30.30,NNW,338,11.0,16.0,91,-99.99,,,0.21,meteohub,2013-03-07 12:03:00,
2013-03-07 07:09:00,21.7,19.6,30.30,NW,315,12.0,16.0,91,-99.99,,,0.21,meteohub,2013-03-07 12:09:00,
2013-03-07 07:14:00,21.7,19.6,30.30,WNW,292,15.0,17.0,91,-99.99,,,0.21,meteohub,2013-03-07 12:14:00,
2013-03-07 07:19:00,21.7,19.6,30.30,WNW,292,10.0,17.0,91,-99.99,,,0.21,meteohub,2013-03-07 12:19:00,
2013-03-07 07:24:00,21.9,19.8,30.29,WNW,292,10.0,17.0,91,-99.99,,,0.21,meteohub,2013-03-07 12:24:00,
2013-03-07 07:29:00,21.9,19.8,30.29,NW,315,12.0,17.0,91,-99.99,,,0.21,meteohub,2013-03-07 12:29:00,
2013-03-07 07:34:00,21.9,19.8,30.29,NNW,338,10.0,17.0,91,-99.99,,,0.21,meteohub,2013-03-07 12:34:00,
2013-03-07 07:39:00,21.9,19.8,30.29,NW,315,19.0,19.0,91,-99.99,,,0.21,meteohub,2013-03-07 12:39:00,
2013-03-07 07:44:00,21.9,19.4,30.29,NW,315,10.0,19.0,90,-99.99,,,0.21,meteohub,2013-03-07 12:44:00,
2013-03-07 07:49:00,21.9,19.4,30.29,WNW,292,11.0,19.0,90,-99.99,,,0.21,meteohub,2013-03-07 12:49:00,
2013-03-07 07:54:00,22.1,19.6,30.29,NW,315,9.0,19.0,90,-99.99,,,0.21,meteohub,2013-03-07 12:54:00,
2013-03-07 07:59:00,22.1,19.6,30.32,NW,315,13.0,16.0,90,-99.99,,,0.21,meteohub,2013-03-07 12:59:00,
2013-03-07 08:04:00,22.3,19.6,30.32,WNW,292,11.0,16.0,89,-99.99,,,0.21,meteohub,2013-03-07 13:04:00,
2013-03-07 08:09:00,22.5,19.8,30.32,NW,315,11.0,20.0,89,-99.99,,,0.21,meteohub,2013-03-07 13:09:00,
2013-03-07 08:14:00,22.5,19.8,30.29,NW,315,10.0,20.0,89,-99.99,,,0.21,meteohub,2013-03-07 13:14:00,
2013-03-07 08:19:00,22.6,19.6,30.29,NW,315,13.0,20.0,88,-99.99,,,0.21,meteohub,2013-03-07 13:19:00,
2013-03-07 08:24:00,22.5,19.2,30.29,NW,315,13.0,16.0,87,-99.99,,,0.21,meteohub,2013-03-07 13:24:00,
2013-03-07 08:29:00,22.6,19.4,30.32,WNW,292,12.0,18.0,87,-99.99,,,0.21,meteohub,2013-03-07 13:29:00,
2013-03-07 08:34:00,22.6,19.4,30.32,WNW,292,13.0,18.0,87,-99.99,,,0.21,meteohub,2013-03-07 13:34:00,
2013-03-07 08:39:00,22.6,19.0,30.32,WNW,292,10.0,17.0,86,-99.99,,,0.21,meteohub,2013-03-07 13:39:00,
2013-03-07 08:44:00,22.6,19.0,30.32,NW,315,15.0,19.0,86,-99.99,,,0.21,meteohub,2013-03-07 13:44:00,
2013-03-07 08:50:00,22.8,19.2,30.32,NNW,338,17.0,19.0,86,-99.99,,,0.21,meteohub,2013-03-07 13:50:00,
2013-03-07 08:55:00,22.8,18.7,30.32,WNW,292,12.0,19.0,84,-99.99,,,0.21,meteohub,2013-03-07 13:55:00,
2013-03-07 09:00:00,22.8,18.5,30.32,NNW,338,13.0,17.0,83,-99.99,,,0.21,meteohub,2013-03-07 14:00:00,
2013-03-07 09:05:00,22.8,18.5,30.32,NW,315,11.0,17.0,83,-99.99,,,0.21,meteohub,2013-03-07 14:05:00,
2013-03-07 09:10:00,23.0,18.7,30.32,NW,315,13.0,17.0,83,-99.99,,,0.21,meteohub,2013-03-07 14:10:00,
2013-03-07 09:15:00,23.2,18.5,30.32,WNW,292,11.0,17.0,82,-99.99,,,0.21,meteohub,2013-03-07 14:15:00,
2013-03-07 09:20:00,23.4,18.3,30.31,WNW,292,15.0,17.0,81,-99.99,,,0.21,meteohub,2013-03-07 14:20:00,
2013-03-07 09:25:00,23.5,18.5,30.31,WNW,292,13.0,17.0,81,-99.99,,,0.21,meteohub,2013-03-07 14:25:00,
2013-03-07 09:30:00,23.5,18.3,30.31,NW,315,13.0,17.0,80,-99.99,,,0.21,meteohub,2013-03-07 14:30:00,
2013-03-07 09:35:00,23.5,18.3,30.31,NNW,338,12.0,19.0,80,-99.99,,,0.21,meteohub,2013-03-07 14:35:00,
2013-03-07 09:40:00,23.5,18.0,30.31,NNW,338,12.0,19.0,79,-99.99,,,0.21,meteohub,2013-03-07 14:40:00,
2013-03-07 09:45:00,23.7,18.5,30.31,NW,315,13.0,19.0,80,-99.99,,,0.21,meteohub,2013-03-07 14:45:00,
2013-03-07 09:50:00,23.7,18.1,30.31,WNW,292,13.0,19.0,79,-99.99,,,0.21,meteohub,2013-03-07 14:50:00,
2013-03-07 09:56:00,23.9,18.1,30.31,NNW,338,13.0,17.0,78,-99.99,,,0.21,meteohub,2013-03-07 14:56:00,
2013-03-07 10:01:00,24.3,18.3,30.30,WNW,292,13.0,18.0,78,-99.99,,,0.21,meteohub,2013-03-07 15:01:00,
2013-03-07 10:06:00,24.3,18.1,30.30,WNW,292,11.0,18.0,77,-99.99,,,0.21,meteohub,2013-03-07 15:06:00,
2013-03-07 10:11:00,24.4,18.3,30.30,WNW,292,11.0,17.0,77,-99.99,,,0.21,meteohub,2013-03-07 15:11:00,
2013-03-07 10:16:00,24.6,18.5,30.30,NW,315,11.0,17.0,77,-99.99,,,0.21,meteohub,2013-03-07 15:16:00,
2013-03-07 10:21:00,24.8,18.3,30.30,WNW,292,10.0,15.0,76,-99.99,,,0.21,meteohub,2013-03-07 15:21:00,
2013-03-07 10:26:00,24.8,18.3,30.30,WNW,292,13.0,15.0,76,-99.99,,,0.21,meteohub,2013-03-07 15:26:00,
2013-03-07 10:31:00,25.2,18.3,30.30,NNE,22,10.0,14.0,75,-99.99,,,0.21,meteohub,2013-03-07 15:31:00,
2013-03-07 10:36:00,25.3,18.3,30.30,WNW,292,9.0,14.0,74,-99.99,,,0.21,meteohub,2013-03-07 15:36:00,
2013-03-07 10:41:00,25.7,18.3,30.29,NW,315,12.0,16.0,73,-99.99,,,0.21,meteohub,2013-03-07 15:41:00,
2013-03-07 10:46:00,25.7,18.0,30.29,NW,315,11.0,17.0,72,-99.99,,,0.21,meteohub,2013-03-07 15:46:00,
2013-03-07 10:51:00,25.7,17.6,30.29,WNW,292,13.0,17.0,71,-99.99,,,0.21,meteohub,2013-03-07 15:51:00,
2013-03-07 10:56:00,25.5,17.4,30.30,NW,315,10.0,17.0,71,-99.99,,,0.21,meteohub,2013-03-07 15:56:00,
2013-03-07 11:01:00,25.7,17.6,30.29,NW,315,10.0,16.0,71,-99.99,,,0.21,meteohub,2013-03-07 16:01:00,
2013-03-07 11:06:00,25.9,18.1,30.29,WNW,292,11.0,16.0,72,-99.99,,,0.21,meteohub,2013-03-07 16:06:00,
2013-03-07 11:11:00,26.1,18.3,30.29,WNW,292,11.0,17.0,72,-99.99,,,0.21,meteohub,2013-03-07 16:11:00,
2013-03-07 11:16:00,26.4,18.3,30.29,West,270,8.0,17.0,71,-99.99,,,0.21,meteohub,2013-03-07 16:16:00,
2013-03-07 11:21:00,27.0,18.9,30.28,NW,315,10.0,17.0,71,-99.99,,,0.21,meteohub,2013-03-07 16:21:00,
2013-03-07 11:26:00,27.3,18.9,30.28,WNW,292,10.0,16.0,70,-99.99,,,0.21,meteohub,2013-03-07 16:26:00,
2013-03-07 11:31:00,27.9,19.0,30.27,WNW,292,11.0,16.0,69,-99.99,,,0.21,meteohub,2013-03-07 16:31:00,
2013-03-07 11:36:00,28.2,18.7,30.27,WNW,292,11.0,17.0,67,-99.99,,,0.21,meteohub,2013-03-07 16:36:00,
2013-03-07 11:41:00,28.9,19.8,30.26,NNW,338,8.0,17.0,68,-99.99,,,0.21,meteohub,2013-03-07 16:41:00,
2013-03-07 11:46:00,29.3,19.4,30.30,NW,315,8.0,16.0,66,-99.99,,,0.21,meteohub,2013-03-07 16:46:00,
2013-03-07 11:51:00,29.3,19.4,30.30,WNW,292,7.0,16.0,66,-99.99,,,0.21,meteohub,2013-03-07 16:51:00,
2013-03-07 11:56:00,29.5,19.6,30.29,NNW,338,9.0,15.0,66,-99.99,,,0.21,meteohub,2013-03-07 16:56:00,
2013-03-07 12:01:00,29.5,19.2,30.26,WNW,292,13.0,15.0,65,-99.99,,,0.21,meteohub,2013-03-07 17:01:00,
2013-03-07 12:06:00,29.5,19.2,30.26,NW,315,8.0,15.0,65,-99.99,,,0.21,meteohub,2013-03-07 17:06:00,
2013-03-07 12:11:00,29.7,19.8,30.26,WNW,292,8.0,15.0,66,-99.99,,,0.21,meteohub,2013-03-07 17:11:00,
2013-03-07 12:16:00,30.0,20.1,30.25,NW,315,15.0,15.0,66,-99.99,,,0.21,meteohub,2013-03-07 17:16:00,
2013-03-07 12:21:00,30.6,20.7,30.25,WNW,292,13.0,15.0,66,-99.99,,,0.21,meteohub,2013-03-07 17:21:00,
2013-03-07 12:26:00,30.7,19.9,30.25,WNW,292,8.0,15.0,64,-99.99,,,0.21,meteohub,2013-03-07 17:26:00,
2013-03-07 12:31:00,30.7,19.6,30.25,WNW,292,9.0,15.0,63,-99.99,,,0.21,meteohub,2013-03-07 17:31:00,
2013-03-07 12:36:00,30.9,19.8,30.25,NW,315,11.0,13.0,63,-99.99,,,0.21,meteohub,2013-03-07 17:36:00,
2013-03-07 12:42:00,30.9,19.4,30.25,NW,315,14.0,15.0,62,-99.99,,,0.21,meteohub,2013-03-07 17:42:00,
2013-03-07 12:47:00,30.9,19.8,30.25,WNW,292,11.0,15.0,63,-99.99,,,0.21,meteohub,2013-03-07 17:47:00,
2013-03-07 12:52:00,31.1,19.6,30.25,NNW,338,12.0,15.0,62,-99.99,,,0.21,meteohub,2013-03-07 17:52:00,
2013-03-07 12:57:00,31.5,19.9,30.24,WNW,292,9.0,14.0,62,-99.99,,,0.21,meteohub,2013-03-07 17:57:00,
2013-03-07 13:02:00,31.8,19.6,30.27,NW,315,8.0,13.0,60,-99.99,,,0.21,meteohub,2013-03-07 18:02:00,
2013-03-07 13:07:00,32.2,19.9,30.27,NW,315,7.0,12.0,60,-99.99,,,0.21,meteohub,2013-03-07 18:07:00,
2013-03-07 13:12:00,32.7,20.5,30.27,NW,315,8.0,14.0,60,-99.99,,,0.21,meteohub,2013-03-07 18:12:00,
2013-03-07 13:17:00,33.3,20.8,30.23,NW,315,10.0,14.0,60,-99.99,,,0.21,meteohub,2013-03-07 18:17:00,
2013-03-07 13:22:00,34.3,19.9,30.22,NW,315,11.0,13.0,55,-99.99,,,0.21,meteohub,2013-03-07 18:22:00,
2013-03-07 13:27:00,34.9,19.9,30.21,WNW,292,10.0,13.0,54,-99.99,,,0.21,meteohub,2013-03-07 18:27:00,
2013-03-07 13:32:00,35.6,20.7,30.21,WNW,292,9.0,15.0,54,-99.99,,,0.21,meteohub,2013-03-07 18:32:00,
2013-03-07 13:37:00,36.0,19.6,30.20,WNW,292,13.0,15.0,51,-99.99,,,0.21,meteohub,2013-03-07 18:37:00,
2013-03-07 13:42:00,35.6,18.9,30.21,WNW,292,6.0,13.0,50,-99.99,,,0.21,meteohub,2013-03-07 18:42:00,
2013-03-07 13:47:00,35.6,18.9,30.21,NW,315,7.0,13.0,50,-99.99,,,0.21,meteohub,2013-03-07 18:47:00,
2013-03-07 13:52:00,36.3,19.9,30.20,WNW,292,9.0,13.0,51,-99.99,,,0.21,meteohub,2013-03-07 18:52:00,
2013-03-07 13:57:00,36.0,19.2,30.20,WNW,292,9.0,11.0,50,-99.99,,,0.21,meteohub,2013-03-07 18:57:00,
2013-03-07 14:02:00,35.8,19.0,30.20,WNW,292,8.0,11.0,50,-99.99,,,0.21,meteohub,2013-03-07 19:02:00,
2013-03-07 14:07:00,36.5,19.8,30.20,WNW,292,5.0,11.0,50,-99.99,,,0.21,meteohub,2013-03-07 19:07:00,
2013-03-07 14:12:00,36.3,19.0,30.20,NW,315,6.0,11.0,49,-99.99,,,0.21,meteohub,2013-03-07 19:12:00,
2013-03-07 14:17:00,37.2,20.3,30.19,WNW,292,5.0,11.0,50,-99.99,,,0.21,meteohub,2013-03-07 19:17:00,
2013-03-07 14:22:00,37.4,20.1,30.19,NW,315,6.0,10.0,49,-99.99,,,0.21,meteohub,2013-03-07 19:22:00,
2013-03-07 14:27:00,37.8,20.3,30.19,WNW,292,6.0,8.0,49,-99.99,,,0.21,meteohub,2013-03-07 19:27:00,
2013-03-07 14:33:00,38.5,20.5,30.18,NW,315,6.0,8.0,48,-99.99,,,0.21,meteohub,2013-03-07 19:33:00,
2013-03-07 14:38:00,37.4,19.0,30.19,WNW,292,8.0,10.0,47,-99.99,,,0.21,meteohub,2013-03-07 19:38:00,
2013-03-07 14:43:00,37.0,18.7,30.19,NNW,338,6.0,10.0,47,-99.99,,,0.21,meteohub,2013-03-07 19:43:00,
2013-03-07 14:48:00,36.1,18.0,30.20,WNW,292,6.0,10.0,47,-99.99,,,0.21,meteohub,2013-03-07 19:48:00,
2013-03-07 14:53:00,35.4,18.1,30.21,NW,315,10.0,10.0,49,-99.99,,,0.21,meteohub,2013-03-07 19:53:00,
2013-03-07 14:58:00,35.4,18.7,30.21,WNW,292,6.0,11.0,50,-99.99,,,0.21,meteohub,2013-03-07 19:58:00,
2013-03-07 15:03:00,35.4,18.7,30.21,WNW,292,6.0,11.0,50,-99.99,,,0.21,meteohub,2013-03-07 20:03:00,
2013-03-07 15:08:00,35.2,19.0,30.21,WNW,292,5.0,11.0,51,-99.99,,,0.21,meteohub,2013-03-07 20:08:00,
2013-03-07 15:13:00,34.9,18.7,30.21,NW,315,8.0,10.0,51,-99.99,,,0.21,meteohub,2013-03-07 20:13:00,
2013-03-07 15:18:00,34.2,18.0,30.22,NW,315,6.0,13.0,51,-99.99,,,0.21,meteohub,2013-03-07 20:18:00,
2013-03-07 15:23:00,34.0,17.8,30.22,NW,315,12.0,13.0,51,-99.99,,,0.21,meteohub,2013-03-07 20:23:00,
2013-03-07 15:28:00,34.3,18.5,30.22,NW,315,6.0,12.0,52,-99.99,,,0.21,meteohub,2013-03-07 20:28:00,
2013-03-07 15:33:00,34.3,18.5,30.22,WNW,292,8.0,13.0,52,-99.99,,,0.21,meteohub,2013-03-07 20:33:00,
2013-03-07 15:38:00,34.2,18.0,30.22,WNW,292,8.0,13.0,51,-99.99,,,0.21,meteohub,2013-03-07 20:38:00,
2013-03-07 15:43:00,33.6,18.0,30.22,NW,315,11.0,13.0,52,-99.99,,,0.21,meteohub,2013-03-07 20:43:00,
2013-03-07 15:48:00,33.3,18.0,30.23,NW,315,6.0,11.0,53,-99.99,,,0.21,meteohub,2013-03-07 20:48:00,
2013-03-07 15:53:00,32.9,17.8,30.23,WNW,292,6.0,12.0,53,-99.99,,,0.21,meteohub,2013-03-07 20:53:00,
2013-03-07 15:58:00,32.7,18.0,30.23,NW,315,7.0,13.0,54,-99.99,,,0.21,meteohub,2013-03-07 20:58:00,
2013-03-07 16:03:00,32.5,17.4,30.23,NW,315,8.0,13.0,53,-99.99,,,0.21,meteohub,2013-03-07 21:03:00,
2013-03-07 16:08:00,32.2,17.4,30.24,WNW,292,9.0,13.0,54,-99.99,,,0.21,meteohub,2013-03-07 21:08:00,
2013-03-07 16:13:00,31.6,17.8,30.24,WNW,292,8.0,13.0,56,-99.99,,,0.21,meteohub,2013-03-07 21:13:00,
2013-03-07 16:19:00,31.3,17.4,30.24,NW,315,9.0,13.0,56,-99.99,,,0.21,meteohub,2013-03-07 21:19:00,
2013-03-07 16:24:00,31.3,18.3,30.24,NW,315,6.0,13.0,58,-99.99,,,0.21,meteohub,2013-03-07 21:24:00,
2013-03-07 16:29:00,30.9,18.0,30.25,NW,315,8.0,13.0,58,-99.99,,,0.21,meteohub,2013-03-07 21:29:00,
2013-03-07 16:34:00,30.6,18.0,30.25,NNE,22,9.0,11.0,59,-99.99,,,0.21,meteohub,2013-03-07 21:34:00,
2013-03-07 16:39:00,30.2,18.0,30.25,NW,315,8.0,11.0,60,-99.99,,,0.21,meteohub,2013-03-07 21:39:00,
2013-03-07 16:44:00,30.0,17.8,30.25,WNW,292,8.0,13.0,60,-99.99,,,0.21,meteohub,2013-03-07 21:44:00,
2013-03-07 16:49:00,29.5,17.4,30.26,NW,315,8.0,13.0,60,-99.99,,,0.21,meteohub,2013-03-07 21:49:00,
2013-03-07 16:54:00,29.3,17.6,30.26,WNW,292,6.0,13.0,61,-99.99,,,0.21,meteohub,2013-03-07 21:54:00,
2013-03-07 16:59:00,28.8,17.1,30.30,NW,315,8.0,15.0,61,-99.99,,,0.21,meteohub,2013-03-07 21:59:00,
2013-03-07 17:04:00,28.6,17.2,30.30,NW,315,6.0,15.0,62,-99.99,,,0.21,meteohub,2013-03-07 22:04:00,
2013-03-07 17:09:00,28.6,18.0,30.30,WNW,292,7.0,15.0,64,-99.99,,,0.21,meteohub,2013-03-07 22:09:00,
2013-03-07 17:14:00,28.2,18.0,30.30,WNW,292,8.0,13.0,65,-99.99,,,0.21,meteohub,2013-03-07 22:14:00,
2013-03-07 17:19:00,28.0,17.8,30.31,WNW,292,9.0,13.0,65,-99.99,,,0.21,meteohub,2013-03-07 22:19:00,
2013-03-07 17:24:00,27.7,17.4,30.31,NW,315,9.0,13.0,65,-99.99,,,0.21,meteohub,2013-03-07 22:24:00,
2013-03-07 17:29:00,27.3,17.4,30.31,WNW,292,9.0,13.0,66,-99.99,,,0.21,meteohub,2013-03-07 22:29:00,
2013-03-07 17:34:00,27.0,17.4,30.32,NW,315,8.0,13.0,67,-99.99,,,0.21,meteohub,2013-03-07 22:34:00,
2013-03-07 17:39:00,26.8,17.6,30.32,WNW,292,9.0,13.0,68,-99.99,,,0.21,meteohub,2013-03-07 22:39:00,
2013-03-07 17:44:00,26.4,18.0,30.32,WNW,292,8.0,14.0,70,-99.99,,,0.21,meteohub,2013-03-07 22:44:00,
2013-03-07 17:49:00,26.1,18.0,30.32,WNW,292,8.0,14.0,71,-99.99,,,0.21,meteohub,2013-03-07 22:49:00,
2013-03-07 17:54:00,25.9,18.1,30.32,NW,315,10.0,17.0,72,-99.99,,,0.21,meteohub,2013-03-07 22:54:00,
2013-03-07 17:59:00,25.7,18.3,30.33,WNW,292,9.0,17.0,73,-99.99,,,0.21,meteohub,2013-03-07 22:59:00,
2013-03-07 18:04:00,25.5,18.1,30.33,WNW,292,8.0,17.0,73,-99.99,,,0.21,meteohub,2013-03-07 23:04:00,
2013-03-07 18:09:00,25.3,18.3,30.33,WNW,292,8.0,13.0,74,-99.99,,,0.21,meteohub,2013-03-07 23:09:00,
2013-03-07 18:15:00,25.3,18.5,30.30,WNW,292,10.0,12.0,75,-99.99,,,0.21,meteohub,2013-03-07 23:15:00,
2013-03-07 18:20:00,25.2,18.1,30.30,WNW,292,8.0,12.0,74,-99.99,,,0.21,meteohub,2013-03-07 23:20:00,
2013-03-07 18:25:00,25.0,18.0,30.30,WNW,292,10.0,13.0,74,-99.99,,,0.21,meteohub,2013-03-07 23:25:00,
2013-03-07 18:30:00,24.8,18.0,30.33,NW,315,11.0,13.0,75,-99.99,,,0.21,meteohub,2013-03-07 23:30:00,
2013-03-07 18:35:00,24.6,17.8,30.34,WNW,292,7.0,15.0,75,-99.99,,,0.21,meteohub,2013-03-07 23:35:00,
2013-03-07 18:40:00,24.4,17.6,30.34,NW,315,9.0,15.0,75,-99.99,,,0.21,meteohub,2013-03-07 23:40:00,
2013-03-07 18:45:00,24.4,18.0,30.34,NW,315,7.0,11.0,76,-99.99,,,0.21,meteohub,2013-03-07 23:45:00,
2013-03-07 18:50:00,24.4,18.0,30.34,West,270,11.0,13.0,76,-99.99,,,0.21,meteohub,2013-03-07 23:50:00,
2013-03-07 18:55:00,24.3,17.8,30.34,NW,315,8.0,13.0,76,-99.99,,,0.21,meteohub,2013-03-07 23:55:00,
2013-03-07 19:00:00,24.1,18.0,30.34,WNW,292,11.0,13.0,77,-99.99,,,0.21,meteohub,2013-03-08 00:00:00,
2013-03-07 19:05:00,23.9,17.8,30.34,WNW,292,9.0,13.0,77,-99.99,,,0.21,meteohub,2013-03-08 00:05:00,
2013-03-07 19:10:00,23.9,18.1,30.34,NW,315,9.0,13.0,78,-99.99,,,0.21,meteohub,2013-03-08 00:10:00,
2013-03-07 19:15:00,23.9,18.1,30.34,NW,315,9.0,13.0,78,-99.99,,,0.21,meteohub,2013-03-08 00:15:00,
2013-03-07 19:20:00,23.7,18.0,30.35,NNW,338,8.0,13.0,78,-99.99,,,0.21,meteohub,2013-03-08 00:20:00,
2013-03-07 19:25:00,23.7,18.0,30.35,NW,315,8.0,13.0,78,-99.99,,,0.21,meteohub,2013-03-08 00:25:00,
2013-03-07 19:30:00,23.5,17.8,30.35,NW,315,10.0,15.0,78,-99.99,,,0.21,meteohub,2013-03-08 00:30:00,
2013-03-07 19:35:00,23.5,17.4,30.35,WNW,292,11.0,15.0,77,-99.99,,,0.21,meteohub,2013-03-08 00:35:00,
2013-03-07 19:40:00,23.5,17.8,30.35,NNW,338,11.0,15.0,78,-99.99,,,0.21,meteohub,2013-03-08 00:40:00,
2013-03-07 19:45:00,23.5,17.8,30.35,WNW,292,9.0,15.0,78,-99.99,,,0.21,meteohub,2013-03-08 00:45:00,
2013-03-07 19:50:00,23.5,17.8,30.35,NW,315,11.0,15.0,78,-99.99,,,0.21,meteohub,2013-03-08 00:50:00,
2013-03-07 19:55:00,23.4,17.6,30.35,NW,315,10.0,17.0,78,-99.99,,,0.21,meteohub,2013-03-08 00:55:00,
2013-03-07 20:00:00,23.4,17.6,30.35,NW,315,10.0,17.0,78,-99.99,,,0.21,meteohub,2013-03-08 01:00:00,
2013-03-07 20:05:00,23.4,17.6,30.35,NW,315,11.0,15.0,78,-99.99,,,0.21,meteohub,2013-03-08 01:05:00,
2013-03-07 20:10:00,23.4,17.6,30.35,WNW,292,11.0,16.0,78,-99.99,,,0.21,meteohub,2013-03-08 01:10:00,
2013-03-07 20:15:00,23.4,17.6,30.35,WNW,292,11.0,17.0,78,-99.99,,,0.21,meteohub,2013-03-08 01:15:00,
2013-03-07 20:20:00,23.2,17.6,30.35,WNW,292,10.0,17.0,79,-99.99,,,0.21,meteohub,2013-03-08 01:20:00,
2013-03-07 20:25:00,23.4,17.6,30.35,WNW,292,13.0,17.0,78,-99.99,,,0.21,meteohub,2013-03-08 01:25:00,
2013-03-07 20:30:00,23.2,17.4,30.38,WNW,292,10.0,15.0,78,-99.99,,,0.21,meteohub,2013-03-08 01:30:00,
2013-03-07 20:35:00,23.0,17.2,30.38,WNW,292,10.0,15.0,78,-99.99,,,0.21,meteohub,2013-03-08 01:35:00,
2013-03-07 20:41:00,23.0,17.2,30.38,WNW,292,9.0,15.0,78,-99.99,,,0.21,meteohub,2013-03-08 01:41:00,
2013-03-07 20:45:00,23.0,16.9,30.35,NW,315,9.0,15.0,77,-99.99,,,0.21,meteohub,2013-03-08 01:45:00,
2013-03-07 20:50:00,22.8,16.7,30.35,NW,315,9.0,15.0,77,-99.99,,,0.21,meteohub,2013-03-08 01:50:00,
2013-03-07 20:55:00,22.8,17.1,30.35,NW,315,11.0,14.0,78,-99.99,,,0.21,meteohub,2013-03-08 01:55:00,
2013-03-07 21:01:00,22.8,17.1,30.39,WNW,292,11.0,15.0,78,-99.99,,,0.21,meteohub,2013-03-08 02:01:00,
2013-03-07 21:06:00,22.8,17.1,30.39,NW,315,8.0,15.0,78,-99.99,,,0.21,meteohub,2013-03-08 02:06:00,
2013-03-07 21:11:00,22.8,16.7,30.39,NW,315,11.0,14.0,77,-99.99,,,0.21,meteohub,2013-03-08 02:11:00,
2013-03-07 21:16:00,22.8,16.7,30.35,NNW,338,11.0,14.0,77,-99.99,,,0.21,meteohub,2013-03-08 02:16:00,
2013-03-07 21:21:00,22.6,16.5,30.35,NNW,338,9.0,14.0,77,-99.99,,,0.21,meteohub,2013-03-08 02:21:00,
2013-03-07 21:26:00,22.6,16.5,30.35,WNW,292,11.0,12.0,77,-99.99,,,0.21,meteohub,2013-03-08 02:26:00,
2013-03-07 21:31:00,22.6,16.2,30.39,WNW,292,10.0,13.0,76,-99.99,,,0.21,meteohub,2013-03-08 02:31:00,
2013-03-07 21:36:00,22.6,16.2,30.39,WNW,292,8.0,15.0,76,-99.99,,,0.21,meteohub,2013-03-08 02:36:00,
2013-03-07 21:41:00,22.6,16.5,30.39,NW,315,8.0,15.0,77,-99.99,,,0.21,meteohub,2013-03-08 02:41:00,
2013-03-07 21:46:00,22.6,16.5,30.39,NW,315,9.0,15.0,77,-99.99,,,0.21,meteohub,2013-03-08 02:46:00,
2013-03-07 21:51:00,22.5,16.0,30.39,NW,315,10.0,13.0,76,-99.99,,,0.21,meteohub,2013-03-08 02:51:00,
2013-03-07 21:56:00,22.5,16.0,30.39,NNW,338,10.0,13.0,76,-99.99,,,0.21,meteohub,2013-03-08 02:56:00,
2013-03-07 22:01:00,22.5,16.0,30.36,WNW,292,9.0,13.0,76,-99.99,,,0.21,meteohub,2013-03-08 03:01:00,
2013-03-07 22:06:00,22.6,16.2,30.35,NNW,338,11.0,13.0,76,-99.99,,,0.21,meteohub,2013-03-08 03:06:00,
2013-03-07 22:11:00,22.6,16.0,30.35,NNW,338,15.0,15.0,75,-99.99,,,0.21,meteohub,2013-03-08 03:11:00,
2013-03-07 22:16:00,22.5,15.8,30.36,NW,315,8.0,15.0,75,-99.99,,,0.21,meteohub,2013-03-08 03:16:00,
2013-03-07 22:21:00,22.5,15.8,30.36,NW,315,9.0,15.0,75,-99.99,,,0.21,meteohub,2013-03-08 03:21:00,
2013-03-07 22:26:00,22.5,15.8,30.36,WNW,292,9.0,15.0,75,-99.99,,,0.21,meteohub,2013-03-08 03:26:00,
2013-03-07 22:31:00,22.5,15.8,30.36,WNW,292,8.0,13.0,75,-99.99,,,0.21,meteohub,2013-03-08 03:31:00,
2013-03-07 22:36:00,22.3,15.6,30.36,WNW,292,11.0,13.0,75,-99.99,,,0.21,meteohub,2013-03-08 03:36:00,
2013-03-07 22:41:00,22.3,15.6,30.36,NNW,338,8.0,13.0,75,-99.99,,,0.21,meteohub,2013-03-08 03:41:00,
2013-03-07 22:46:00,22.3,15.6,30.36,NNW,338,8.0,13.0,75,-99.99,,,0.21,meteohub,2013-03-08 03:46:00,
2013-03-07 22:51:00,22.3,15.6,30.36,NW,315,8.0,13.0,75,-99.99,,,0.21,meteohub,2013-03-08 03:51:00,
2013-03-07 22:57:00,22.3,15.6,30.36,NW,315,8.0,13.0,75,-99.99,,,0.21,meteohub,2013-03-08 03:57:00,
2013-03-07 23:02:00,22.1,15.8,30.39,WNW,292,7.0,13.0,76,-99.99,,,0.21,meteohub,2013-03-08 04:02:00,
2013-03-07 23:07:00,22.3,15.6,30.39,WNW,292,7.0,13.0,75,-99.99,,,0.21,meteohub,2013-03-08 04:07:00,
2013-03-07 23:12:00,22.1,15.8,30.39,WNW,292,7.0,13.0,76,-99.99,,,0.21,meteohub,2013-03-08 04:12:00,
2013-03-07 23:17:00,22.1,15.8,30.39,WNW,292,10.0,13.0,76,-99.99,,,0.21,meteohub,2013-03-08 04:17:00,
2013-03-07 23:22:00,22.1,15.4,30.39,NNW,338,9.0,13.0,75,-99.99,,,0.21,meteohub,2013-03-08 04:22:00,
2013-03-07 23:27:00,22.1,15.4,30.39,NW,315,8.0,13.0,75,-99.99,,,0.21,meteohub,2013-03-08 04:27:00,
2013-03-07 23:32:00,22.1,15.4,30.39,NNW,338,8.0,14.0,75,-99.99,,,0.21,meteohub,2013-03-08 04:32:00,
2013-03-07 23:37:00,22.1,15.4,30.39,NW,315,11.0,17.0,75,-99.99,,,0.21,meteohub,2013-03-08 04:37:00,
2013-03-07 23:42:00,22.1,15.8,30.39,WNW,292,11.0,17.0,76,-99.99,,,0.21,meteohub,2013-03-08 04:42:00,
2013-03-07 23:47:00,22.1,15.8,30.39,NNW,338,11.0,17.0,76,-99.99,,,0.21,meteohub,2013-03-08 04:47:00,
2013-03-07 23:52:00,22.1,15.4,30.39,WNW,292,8.0,14.0,75,-99.99,,,0.21,meteohub,2013-03-08 04:52:00,
2013-03-07 23:57:00,22.1,15.4,30.39,NW,315,9.0,13.0,75,-99.99,,,0.21,meteohub,2013-03-08 04:57:00,